Bookmark and Share
Track history (hours):
 

British Envoy

Last reported at 2014-Apr-20 14:00 UTC. Time now 2014-Apr-21 07:37 UTC.
Position S 33°54' E 018°24'.

Length 184.2 m; beam 27.4 m; draft 11.3 m.

Type: Tanker. MMSI: 235011280.

Wind from 130 at 5 knots

Barometer 1014.8 mb
Air temperature 21.0 ° C
Visibility: greater than 5.4 NM
Dewpoint 16.0 ° C

NotesDate/timePositionNaut miles runAvg speedWind from/ knotsBaromVisibWave heightAir tempDewpointWater temp
2014-Apr-20 14:00S 33°54' E 018°24'2 0.3 130 / 51014.8 5.4 21.016.0
2014-Apr-20 07:33S 33°55' E 018°26'0 0.2
2014-Apr-20 06:33S 33°55' E 018°26'0 0.0
2014-Apr-20 05:33S 33°55' E 018°26'0 0.0
2014-Apr-20 04:33S 33°55' E 018°26'0 0.0
2014-Apr-19 07:33S 33°55' E 018°26'3 2.8
2014-Apr-19 06:33S 33°53' E 018°25'5 4.5
2014-Apr-19 05:32S 33°52' E 018°19'8 7.7
2014-Apr-19 04:33S 33°50' E 018°10'17 1.7
2014-Apr-18 18:18S 33°56' E 017°51'3 1.5
2014-Apr-18 16:00S 33°54' E 017°48'7 2.8 150 / 141019.210.8 0.518.016.317.0
2014-Apr-18 13:29S 33°60' E 017°53'8 6.7
2014-Apr-18 12:15S 33°56' E 018°02'6 3.6
2014-Apr-18 10:32S 33°53' E 018°09'1 1.1
2014-Apr-18 09:13S 33°52' E 018°10'3 4.4
2014-Apr-18 08:33S 33°50' E 018°13'19 8.2
2014-Apr-18 06:16S 34°09' E 018°11'811.3
2014-Apr-18 05:33S 34°16' E 018°07'1211.8
2014-Apr-18 04:33S 34°28' E 018°05'59 7.3
2014-Apr-17 20:33S 35°10' E 018°55'1212.0
2014-Apr-17 19:32S 35°11' E 019°10'1311.8
2014-Apr-17 18:28S 35°15' E 019°25'1612.1
2014-Apr-17 17:10S 35°13' E 019°44'1112.3
2014-Apr-17 16:17S 35°11' E 019°57'2312.0
2014-Apr-17 14:21S 35°03' E 020°23'219 6.1
2014-Apr-16 02:22S 34°28' E 024°46'10711.7
2014-Apr-15 17:16S 33°54' E 026°48'40 8.5
2014-Apr-15 12:31S 33°41' E 027°34'22512.5
2014-Apr-14 18:31S 30°55' E 030°35'3316.3
2014-Apr-14 16:30S 30°27' E 030°55'1415.0
2014-Apr-14 15:34S 30°15' E 031°03'1313.4
2014-Apr-14 14:34S 30°02' E 031°08'1212.0
2014-Apr-14 13:33S 29°51' E 031°06'4 0.1
2014-Apr-13 10:28S 29°53' E 031°02'4 4.4
2014-Apr-13 09:32S 29°50' E 031°05'5 5.3
2014-Apr-13 08:33S 29°49' E 031°11'1110.9
2014-Apr-13 07:33S 29°40' E 031°18'1 1.1
2014-Apr-13 06:33S 29°41' E 031°17'8 7.8
2014-Apr-13 05:33S 29°49' E 031°15'7 6.7
2014-Apr-13 04:33S 29°55' E 031°18'6 5.6
2014-Apr-13 03:33S 30°00' E 031°18'3 2.9
2014-Apr-13 02:33S 29°57' E 031°18'8 8.2
2014-Apr-13 01:33S 29°50' E 031°22'8 8.5
2014-Apr-13 00:33S 29°43' E 031°27'3 2.5
2014-Apr-12 23:33S 29°40' E 031°25'7 7.1
2014-Apr-12 22:33S 29°45' E 031°20'7 7.4
2014-Apr-12 21:33S 29°50' E 031°13'7 7.0
2014-Apr-12 20:32S 29°57' E 031°10'7 7.1
2014-Apr-12 19:32S 30°04' E 031°09'5 5.1
2014-Apr-12 18:33S 30°01' E 031°14'8 8.4
2014-Apr-12 17:33S 29°55' E 031°21'9 8.6
2014-Apr-12 16:33S 29°49' E 031°28'6 6.0
2014-Apr-12 15:33S 29°44' E 031°32'4 4.0
2014-Apr-12 14:33S 29°47' E 031°29'4 4.5
2014-Apr-12 13:33S 29°51' E 031°26'1211.5
2014-Apr-12 12:33S 29°59' E 031°17'1212.3
2014-Apr-12 11:33S 30°09' E 031°08'1311.6
2014-Apr-12 10:28S 30°20' E 031°01'910.2
2014-Apr-12 09:33S 30°29' E 030°56'10 9.7
2014-Apr-12 08:32S 30°37' E 030°50'9 9.4
2014-Apr-12 07:32S 30°44' E 030°43'  

Dump ship's entire track history

sailing weather and tide predictions

British Envoy — MNAN4 — position and weather